Weather in Adzhikabul

Azerbaijan     40°01′58″N   48°56′06″E
temp.,
°C
wind,
m/s
gust,
m/s
humid.,
%
clouds,
%
prec.,
mm/h
press.,
hPa
HPBL,
m
16 may, sun
sun1601:00+20e11480 0.0 101411
04:00+19ese22420 0.0 101311
07:00+21s11390 0.0 101440
10:00+26ssw12260 0.0 1014650
13:00+31sse35200 0.0 10131731
16:00+31se77180 0.0 10111468
19:00+26se67260 0.0 1011480
22:00+21ese22430 0.0 101233
17 may, mon
mon1701:00+20e11490 0.0 101111
04:00+19sse11510 0.0 101011
07:00+21sse23515 0.0 1011141
10:00+26ssw56344 0.0 1011728
13:00+31ssw552474 0.0 10091360
16:00+32sse76270 0.0 10071450
19:00+26se793241 0.0 1007533
22:00+22n22421 0.0 100926
18 may, tue
tue1801:00+22e334463 0.0 100627
04:00+20se225147 0.0 100612
07:00+21e3450100 0.0 1006149
10:00+26se1236100 0.0 1006629
13:00+30e652374 0.0 10061288
16:00+31e652315 0.0 10051293
19:00+29e33318 0.0 1007563
22:00+24sw11567 0.0 100922
19 may, wed
wed1901:00+20w126827 0.0 101050
04:00+19se237848 0.0 101059
07:00+19ese22752 0.0 1012199
10:00+25sse32470 0.0 1012791
13:00+30s12280 0.0 10121684
16:00+29se96360 0.0 1012805
19:00+25e88420 0.0 1014782
22:00+22se35560 0.0 1015160
20 may, thu
thu2001:00+20ese11610 0.0 101511
04:00+19e11650 0.0 101411
07:00+21ssw11590 0.0 1015121
10:00+26sw33420 0.0 1015771
13:00+31s43280 0.0 10131632
16:00+32se86270 0.0 10121553
19:00+26sse67390 0.0 1013570
22:00+22ese35580 0.0 1014152